Regional Weather Roundup
Issued by NWS

Home | Current Version | Previous Version | Graphics & Text | Print | Product List | Glossary On
Versions: 1 2 3 4 5 6 7 8 9 10 11 12 13 14 15 16 17 18 19 20 21 22 23 24 25 26 27 28 29 30 31 32 33 34 35 36 37 38 39 40 41 42 43 44 45 46 47 48 49 50
000
ASUS45 KCYS 291510
RWRWY

WYOMING REGIONAL WEATHER ROUNDUP
NATIONAL WEATHER SERVICE CHEYENNE WY
900 AM MDT WED JUL 29 2015

NOTE:  "FAIR" INDICATES FEW OR NO CLOUDS BELOW 12,000 FEET
WITH NO SIGNIFICANT WEATHER AND/OR OBSTRUCTIONS TO VISIBILITY.

WYZ001-291600-
YELLOWSTONE NATIONAL PARK

CITY           SKY/WX    TMP DP  RH WIND       PRES   REMARKS
LK YELLOWSTONE   N/A     46  38  73 SE5       30.51R
W YELLOWSTONE  NOT AVBL

$$
WYZ002>013-054>058-071-098>099-291600-
NORTHERN WYOMING

CITY           SKY/WX    TMP DP  RH WIND       PRES   REMARKS
JACKSON        FAIR      46  34  61 CALM      30.47S
CODY           FAIR      63  34  34 SW17      30.34S
GREYBULL       FAIR      60  35  39 VRB3      30.33R
WORLAND        FAIR      62  33  33 CALM      30.33R
SHERIDAN       FAIR      70  42  36 NE3       30.30R
BUFFALO        FAIR      67  34  29 SE10      30.35R
GILLETTE         N/A     68  36  30 MISG      30.32R
HULETT         FAIR      64  37  36 W10       30.32R
NEWCASTLE      FAIR      63  39  42 S8        30.34R

$$
WYZ014>020-022>026-101>103-291600-
CENTRAL WYOMING

CITY           SKY/WX    TMP DP  RH WIND       PRES   REMARKS
BIG PINEY      FAIR      51  27  39 CALM      30.46S
PINEDALE       FAIR      48  30  49 CALM      30.46S
DUBOIS         FAIR      50  30  46 N3        30.43F
LANDER         FAIR      58  34  40 E3        30.38R
RIVERTON       FAIR      60  32  34 CALM      30.39R
CASPER         FAIR      60  32  34 CALM      30.37S
DOUGLAS        FAIR      62  34  35 CALM      30.37S

$$
WYZ021-027>030-104>119-291600-
SOUTHERN WYOMING

CITY           SKY/WX    TMP DP  RH WIND       PRES   REMARKS
EVANSTON       FAIR      54  26  34 VRB3      30.45R
KEMMERER       FAIR      52  30  43 N5        30.46S
FORT BRIDGER   SUNNY     57  28  33 E5        30.48S
ROCK SPRINGS   FAIR      54  26  34 CALM      30.44R
DIXON          FAIR      54  27  35 CALM      30.44S
RAWLINS        FAIR      57  26  30 E6        30.42S
SARATOGA       FAIR      55  30  38 CALM      30.44S
LARAMIE        FAIR      62  39  42 S5        30.41R
CHEYENNE       FAIR      61  37  41 N3        30.38S
TORRINGTON     FAIR      65  42  43 E9        30.34R
PINE BLUFFS    FAIR      66  41  39 SE6       30.35F

$$


USA.gov is the U.S. government's official web portal to all federal, state and local government web resources and services.